Estación de San Pedro
Ultimos registro cada 15 minutos 69
| N° | Estación | Fecha / Hora | Temperatura | Humedad | Lluvia | Velocidad | Dirección | Radiación | Presion |
| 69 | San Pedro | 06-05-2026 17:00 | 13,7 | 90,3 | 0 | 1 | 237 | 50,6 | 1004 |
| 68 | San Pedro | 06-05-2026 16:45 | 13,9 | 94,2 | 0 | 1 | 251 | 49,4 | 1003,9 |
| 67 | San Pedro | 06-05-2026 16:30 | 14,1 | 95,3 | 0 | 0,5 | 239 | 69,4 | 1003,9 |
| 66 | San Pedro | 06-05-2026 16:15 | 14,1 | 95,9 | 0 | 1 | 234 | 88,1 | 1004 |
| 65 | San Pedro | 06-05-2026 16:00 | 14,1 | 95,4 | 0,2 | 1 | 243 | 70,6 | 1003,7 |
| 64 | San Pedro | 06-05-2026 15:45 | 14,9 | 95,4 | 0,2 | 0,5 | 264 | 56,9 | 1003,3 |
| 63 | San Pedro | 06-05-2026 15:30 | 15,3 | 96,1 | 0 | 0 | 285 | 176,9 | 1003,2 |
| 62 | San Pedro | 06-05-2026 15:15 | 15 | 95,7 | 0 | 0 | 293 | 45,6 | 1003,4 |
| 61 | San Pedro | 06-05-2026 15:00 | 15,3 | 95,9 | 0 | 0,5 | 282 | 209,4 | 1002,9 |
| 60 | San Pedro | 06-05-2026 14:45 | 14,8 | 96,7 | 0 | 1 | 282 | 241,9 | 1002,6 |
| 59 | San Pedro | 06-05-2026 14:30 | 14,7 | 97,1 | 0 | 2 | 291 | 133,1 | 1002,7 |
| 58 | San Pedro | 06-05-2026 14:15 | 14,9 | 97,8 | 0 | 2 | 292 | 134,4 | 1002,6 |
| 57 | San Pedro | 06-05-2026 14:00 | 15 | 97,2 | 0 | 1,5 | 303 | 160,6 | 1002,3 |
| 56 | San Pedro | 06-05-2026 13:45 | 15,2 | 97,3 | 0,2 | 2 | 303 | 170,6 | 1002,3 |
| 55 | San Pedro | 06-05-2026 13:30 | 14,9 | 97,3 | 0,4 | 2 | 307 | 109,4 | 1002,4 |
| 54 | San Pedro | 06-05-2026 13:15 | 15 | 98,2 | 0,6 | 1 | 321 | 43,1 | 1002,8 |
| 53 | San Pedro | 06-05-2026 13:00 | 14,9 | 97,7 | 0 | 1 | 0 | 80,6 | 1002,2 |
| 52 | San Pedro | 06-05-2026 12:45 | 14,4 | 97,9 | 0,2 | 0,5 | 341 | 43,1 | 1002,3 |
| 51 | San Pedro | 06-05-2026 12:30 | 14,2 | 98 | 0 | 0,5 | 3 | 25,6 | 1002,3 |
| 50 | San Pedro | 06-05-2026 12:15 | 14,1 | 98,1 | 1,4 | 1 | 21 | 56,9 | 1001,9 |
| 49 | San Pedro | 06-05-2026 12:00 | 14,1 | 97,5 | 0,6 | 1 | 8 | 40,6 | 1001,9 |
| 48 | San Pedro | 06-05-2026 11:45 | 14 | 98 | 1,4 | 1,5 | 8 | 84,4 | 1001,7 |
| 47 | San Pedro | 06-05-2026 11:30 | 14,3 | 96,4 | 0,2 | 1,5 | 8 | 41,9 | 1002 |
| 46 | San Pedro | 06-05-2026 11:15 | 14,4 | 95,7 | 0 | 1 | 17 | 221,9 | 1001,4 |
| 45 | San Pedro | 06-05-2026 11:00 | 14,2 | 96,6 | 0,2 | 0,5 | 24 | 181,9 | 1001,4 |
| 44 | San Pedro | 06-05-2026 10:45 | 13,7 | 97,2 | 0,2 | 1 | 32 | 110,6 | 1001,3 |
| 43 | San Pedro | 06-05-2026 10:30 | 13,4 | 97,6 | 0,4 | 0,5 | 29 | 109,4 | 1001,2 |
| 42 | San Pedro | 06-05-2026 10:15 | 13,1 | 97,6 | 1,4 | 1 | 25 | 63,1 | 1001,3 |
| 41 | San Pedro | 06-05-2026 10:00 | 12,9 | 97,5 | 1,4 | 0,5 | 17 | 41,9 | 1001 |
| 40 | San Pedro | 06-05-2026 09:45 | 12,7 | 96,2 | 1,4 | 1 | 358 | 11,9 | 1000,8 |
| 39 | San Pedro | 06-05-2026 09:30 | 13,3 | 94,3 | 0,6 | 0 | 354 | 23,1 | 1000,5 |
| 38 | San Pedro | 06-05-2026 09:15 | 13,6 | 93,2 | 0,2 | 0,5 | 29 | 48,1 | 999,8 |
| 37 | San Pedro | 06-05-2026 09:00 | 13,2 | 95,4 | 0 | 1 | 35 | 134,4 | 1000,1 |
| 36 | San Pedro | 06-05-2026 08:45 | 12,5 | 98,4 | 0,2 | 1 | 18 | 74,4 | 1000,2 |
| 35 | San Pedro | 06-05-2026 08:30 | 12,5 | 99 | 0,4 | 1 | 28 | 29,4 | 1000,3 |
| 34 | San Pedro | 06-05-2026 08:15 | 11,4 | 100 | 0 | 0,5 | 62 | 8,1 | 1000,2 |
| 33 | San Pedro | 06-05-2026 08:00 | 10,8 | 100 | 0,2 | 0 | 76 | 3,1 | 1000,1 |
| 32 | San Pedro | 06-05-2026 07:45 | 10,6 | 100 | 0,4 | 0 | 76 | 1,9 | 1000,2 |
| 31 | San Pedro | 06-05-2026 07:30 | 10,4 | 100 | 0,6 | 0 | 128 | 0,6 | 1000,2 |
| 30 | San Pedro | 06-05-2026 07:15 | 10,1 | 100 | 0 | 0 | 175 | 0,6 | 1000,2 |
| 29 | San Pedro | 06-05-2026 07:00 | 10,1 | 100 | 0 | 0 | 173 | 0,6 | 999,8 |
| 28 | San Pedro | 06-05-2026 06:45 | 10,1 | 100 | 0 | 0 | 76 | 0,6 | 999,6 |
| 27 | San Pedro | 06-05-2026 06:30 | 9,7 | 100 | 0 | 0 | 84 | 0,6 | 999,3 |
| 26 | San Pedro | 06-05-2026 06:15 | 9,4 | 100 | 0 | 0 | 102 | 0,6 | 999,4 |
| 25 | San Pedro | 06-05-2026 06:00 | 9,2 | 100 | 0 | 0 | 102 | 0,6 | 999,3 |
| 24 | San Pedro | 06-05-2026 05:45 | 9,4 | 100 | 0 | 0 | 102 | 0,6 | 999,2 |
| 23 | San Pedro | 06-05-2026 05:30 | 9 | 100 | 0 | 0 | 102 | 0,6 | 999 |
| 22 | San Pedro | 06-05-2026 05:15 | 9 | 100 | 0 | 0 | 124 | 0,6 | 998,8 |
| 21 | San Pedro | 06-05-2026 05:00 | 8,9 | 99,9 | 0 | 0 | 74 | 0,6 | 998,6 |
| 20 | San Pedro | 06-05-2026 04:45 | 9,3 | 99,9 | 0 | 0 | 60 | 0,6 | 998,5 |
| 19 | San Pedro | 06-05-2026 04:30 | 9,4 | 99,8 | 0 | 0 | 60 | 0,6 | 998,6 |
| 18 | San Pedro | 06-05-2026 04:15 | 9,8 | 99,8 | 0 | 0,5 | 73 | 0,6 | 998,5 |
| 17 | San Pedro | 06-05-2026 04:00 | 10 | 99,7 | 0 | 0 | 83 | 0,6 | 998,8 |
| 16 | San Pedro | 06-05-2026 03:45 | 10,2 | 99,7 | 0 | 0 | 83 | 0,6 | 998,8 |
| 15 | San Pedro | 06-05-2026 03:30 | 10,2 | 99,6 | 0 | 0,5 | 80 | 0,6 | 998,9 |
| 14 | San Pedro | 06-05-2026 03:15 | 10,4 | 99,6 | 0 | 0 | 41 | 0,6 | 998,9 |
| 13 | San Pedro | 06-05-2026 03:00 | 10,4 | 99,5 | 0 | 0 | 256 | 0,6 | 999,2 |
| 12 | San Pedro | 06-05-2026 02:45 | 10,6 | 99,4 | 0 | 0 | 261 | 0,6 | 999,1 |
| 11 | San Pedro | 06-05-2026 02:30 | 10,6 | 99,4 | 0 | 0 | 240 | 0,6 | 999,1 |
| 10 | San Pedro | 06-05-2026 02:15 | 10,5 | 99,3 | 0 | 0 | 241 | 0,6 | 999 |
| 9 | San Pedro | 06-05-2026 02:00 | 10,7 | 99,3 | 0 | 0 | 62 | 0,6 | 998,8 |
| 8 | San Pedro | 06-05-2026 01:45 | 10,8 | 99,1 | 0 | 0 | 73 | 0,6 | 998,9 |
| 7 | San Pedro | 06-05-2026 01:30 | 10,9 | 99 | 0 | 0 | 140 | 0,6 | 999 |
| 6 | San Pedro | 06-05-2026 01:15 | 10,9 | 98,9 | 0 | 0 | 98 | 0,6 | 999,2 |
| 5 | San Pedro | 06-05-2026 01:00 | 11,1 | 98,8 | 0 | 0 | 45 | 0,6 | 999,2 |
| 4 | San Pedro | 06-05-2026 00:45 | 11,1 | 98,1 | 0 | 0 | 321 | 0,6 | 999,4 |
| 3 | San Pedro | 06-05-2026 00:30 | 11,1 | 97,9 | 0 | 0 | 358 | 0,6 | 999,5 |
| 2 | San Pedro | 06-05-2026 00:15 | 11,3 | 97,7 | 0 | 0 | 37 | 0,6 | 999,6 |
| 1 | San Pedro | 06-05-2026 00:00 | 11,4 | 97,3 | 0 | 0 | 53 | 0,6 | 999,4 |